This is the latest recevied weather packets stored in our database for station/object KD2RHT-13. If no packets are shown the sender has not sent any weather packets the latest 10 day(s).
| Time | Temp. | Humidity | Pressure | Rain* | Wind** | Luminosity | Snow |
|---|---|---|---|---|---|---|---|
| 1777678652 | 7.78° C | 80% | 1013.9 hPa | 0 mm | - | 2 W/m² | - |
| 1777678350 | 7.78° C | 79% | 1013.9 hPa | 0 mm | - | 3 W/m² | - |
| 1777678050 | 7.78° C | 78% | 1013.5 hPa | 0 mm | - | 5 W/m² | - |
| 1777677747 | 7.78° C | 79% | 1013.5 hPa | 0 mm | - | 6 W/m² | - |
| 1777677445 | 7.78° C | 78% | 1013.5 hPa | 0 mm | - | 9 W/m² | - |
| 1777677143 | 7.78° C | 77% | 1013.9 hPa | 0 mm | - | 13 W/m² | - |
| 1777676841 | 8.33° C | 77% | 1013.5 hPa | 0 mm | - | 24 W/m² | - |
| 1777676540 | 8.33° C | 78% | 1013.5 hPa | 0 mm | - | 23 W/m² | - |
| 1777676237 | 8.89° C | 76% | 1013.5 hPa | 0 mm | - | 26 W/m² | - |
| 1777675933 | 8.89° C | 75% | 1013.5 hPa | 0 mm | - | 35 W/m² | - |
| 1777675629 | 8.89° C | 72% | 1013.5 hPa | 0 mm | - | 38 W/m² | - |
| 1777675327 | 9.44° C | 69% | 1013.1 hPa | 0 mm | - | 42 W/m² | - |
| 1777675023 | 8.89° C | 68% | 1013.1 hPa | 0 mm | - | 41 W/m² | - |
| 1777674720 | 9.44° C | 65% | 1013.5 hPa | 0 mm | - | 43 W/m² | - |
| 1777674416 | 9.44° C | 65% | 1013.5 hPa | 0 mm | - | 35 W/m² | - |
| 1777674114 | 9.44° C | 64% | 1013.1 hPa | 0 mm | - | 35 W/m² | - |
| 1777673810 | 9.44° C | 65% | 1013.1 hPa | 0 mm | - | 32 W/m² | - |
| 1777673507 | 9.44° C | 63% | 1013.5 hPa | 0 mm | - | 47 W/m² | - |
| 1777673205 | 9.44° C | 64% | 1013.9 hPa | 0 mm | - | 54 W/m² | - |
| 1777672902 | 9.44° C | 62% | 1013.1 hPa | 0 mm | - | 50 W/m² | - |
| 1777672599 | 10° C | 64% | 1013.5 hPa | 0 mm | - | 71 W/m² | - |
| 1777672294 | 10° C | 63% | 1013.1 hPa | 0 mm | - | 88 W/m² | - |
| 1777671989 | 10° C | 64% | 1013.1 hPa | 0 mm | - | 94 W/m² | - |
| 1777671684 | 10° C | 64% | 1013.1 hPa | 0 mm | - | 117 W/m² | - |
| 1777671382 | 10° C | 62% | 1013.1 hPa | 0 mm | - | 125 W/m² | - |
* Rain latest hour (hover to see other rain measurements)
** Current wind speed in m/s (hover to see current wind gust speed)